| time (UTC) | temp F | wind direction | speed MPH | gust MPH | rain 1hr in | rain 24hr in | rain mn in | humidity % | barometer mb |
| 20260902083102 | 69 | 0 | 0.0 | 1.0 | 0.00 | 0.07 | 0.00 | 73 | 1019.0 |
| 20260902081609 | 70 | 0 | 0.0 | 2.0 | 0.00 | 0.07 | 0.00 | 73 | 1019.1 |
| 20260902080105 | 70 | 0 | 0.0 | 1.0 | 0.00 | 0.07 | 0.00 | 73 | 1019.1 |
| 20260902074614 | 70 | 256 | 0.0 | 1.0 | 0.00 | 0.07 | 0.00 | 74 | 1019.0 |
| 20260902073107 | 70 | 256 | 0.0 | 1.0 | 0.00 | 0.07 | 0.00 | 72 | 1018.9 |
| 20260902071604 | 70 | 256 | 0.0 | 2.0 | 0.00 | 0.07 | 0.00 | 70 | 1018.7 |
| 20260902070107 | 71 | 0 | 0.0 | 1.0 | 0.00 | 0.07 | 0.00 | 69 | 1018.7 |
| 20260902064603 | 71 | 0 | 0.0 | 2.0 | 0.00 | 0.07 | 0.07 | 69 | 1018.7 |
| 20260902063150 | 71 | 0 | 0.0 | 2.0 | 0.00 | 0.07 | 0.07 | 68 | 1018.9 |
| 20260902061558 | 70 | 0 | 1.0 | 4.0 | 0.00 | 0.07 | 0.07 | 69 | 1018.9 |
| 20260902060116 | 70 | 0 | 0.0 | 2.0 | 0.00 | 0.07 | 0.07 | 70 | 1018.8 |
| 20260902054603 | 71 | 284 | 0.0 | 2.0 | 0.00 | 0.07 | 0.07 | 68 | 1019.0 |
| 20260902053106 | 72 | 0 | 0.0 | 3.0 | 0.00 | 0.07 | 0.07 | 64 | 1019.0 |
| 20260902051559 | 72 | 323 | 0.0 | 2.0 | 0.00 | 0.07 | 0.07 | 63 | 1018.8 |
| 20260902050059 | 72 | 0 | 0.0 | 3.0 | 0.00 | 0.07 | 0.07 | 63 | 1018.8 |
| 20260902044605 | 73 | 0 | 0.0 | 4.0 | 0.00 | 0.07 | 0.07 | 62 | 1018.8 |
| 20260902043106 | 74 | 0 | 0.0 | 6.0 | 0.00 | 0.07 | 0.07 | 61 | 1018.7 |
| 20260902041558 | 74 | 238 | 1.0 | 4.0 | 0.00 | 0.07 | 0.07 | 61 | 1018.7 |
| 20260902040108 | 74 | 226 | 1.0 | 4.0 | 0.00 | 0.07 | 0.07 | 62 | 1018.5 |
| 20260902034608 | 75 | 230 | 1.0 | 4.0 | 0.00 | 0.07 | 0.07 | 61 | 1018.4 |
| 20260902033107 | 76 | 215 | 0.0 | 3.0 | 0.00 | 0.07 | 0.07 | 60 | 1018.1 |
| 20260902031608 | 75 | 0 | 0.0 | 2.0 | 0.00 | 0.07 | 0.07 | 60 | 1017.9 |
| 20260902024611 | 75 | 0 | 0.0 | 3.0 | 0.00 | 0.07 | 0.07 | 58 | 1017.4 |
| 20260902023058 | 75 | 0 | 0.0 | 3.0 | 0.00 | 0.07 | 0.07 | 58 | 1017.3 |
| 20260902021604 | 76 | 0 | 0.0 | 3.0 | 0.00 | 0.07 | 0.07 | 56 | 1017.3 |
| 20260902020104 | 76 | 0 | 0.0 | 2.0 | 0.00 | 0.07 | 0.07 | 54 | 1017.1 |
| 20260902014604 | 78 | 0 | 0.0 | 2.0 | 0.00 | 0.07 | 0.07 | 53 | 1017.0 |
| 20260902013102 | 80 | 0 | 0.0 | 5.0 | 0.00 | 0.07 | 0.07 | 47 | 1017.1 |
| 20260902011559 | 81 | 235 | 0.0 | 5.0 | 0.00 | 0.07 | 0.07 | 48 | 1017.1 |
| 20260902010105 | 82 | 214 | 1.0 | 7.0 | 0.00 | 0.07 | 0.07 | 48 | 1017.1 |
| 20260902004603 | 83 | 210 | 2.0 | 6.0 | 0.00 | 0.07 | 0.07 | 47 | 1017.0 |
| 20260902003104 | 83 | 205 | 3.0 | 8.0 | 0.00 | 0.07 | 0.07 | 46 | 1017.0 |
| 20260902001607 | 82 | 205 | 1.0 | 6.0 | 0.00 | 0.07 | 0.07 | 54 | 1017.2 |
| 20260901234613 | 80 | 174 | 3.0 | 17.0 | 0.00 | 0.07 | 0.07 | 57 | 1017.3 |
| 20260901233104 | 79 | 186 | 8.0 | 19.0 | 0.00 | 0.07 | 0.07 | 54 | 1017.5 |
| 20260901231605 | 81 | 146 | 2.0 | 7.0 | 0.07 | 0.07 | 0.07 | 54 | 1017.5 |
| 20260901230105 | 80 | 133 | 2.0 | 6.0 | 0.07 | 0.07 | 0.07 | 59 | 1017.5 |
| 20260901224605 | 75 | 193 | 2.0 | 11.0 | 0.07 | 0.07 | 0.07 | 72 | 1017.8 |
| 20260901223105 | 71 | 204 | 2.0 | 12.0 | 0.07 | 0.07 | 0.07 | 81 | 1017.9 |
| 20260901221608 | 75 | 200 | 6.0 | 20.0 | 0.00 | 0.00 | 0.00 | 62 | 1018.2 |
| 20260901220118 | 83 | 197 | 5.0 | 15.0 | 0.00 | 0.00 | 0.00 | 37 | 1018.2 |
| 20260901214607 | 86 | 205 | 2.0 | 7.0 | 0.00 | 0.00 | 0.00 | 43 | 1018.0 |
| 20260901213112 | 87 | 59 | 3.0 | 7.0 | 0.00 | 0.00 | 0.00 | 41 | 1018.0 |
| 20260901211604 | 89 | 39 | 3.0 | 9.0 | 0.00 | 0.00 | 0.00 | 39 | 1018.1 |
| 20260901210104 | 89 | 0 | 6.0 | 16.0 | 0.00 | 0.00 | 0.00 | 37 | 1018.2 |
| 20260901204602 | 88 | 153 | 6.0 | 14.0 | 0.00 | 0.00 | 0.00 | 39 | 1018.4 |
| 20260901203058 | 88 | 161 | 4.0 | 14.0 | 0.00 | 0.00 | 0.00 | 41 | 1018.4 |
| 20260901201605 | 88 | 180 | 6.0 | 15.0 | 0.00 | 0.00 | 0.00 | 42 | 1018.5 |
| 20260901200104 | 87 | 105 | 5.0 | 13.0 | 0.00 | 0.00 | 0.00 | 43 | 1018.7 |
| 20260901194605 | 85 | 94 | 3.0 | 10.0 | 0.00 | 0.00 | 0.00 | 47 | 1019.1 |
| 20260901193111 | 85 | 104 | 4.0 | 10.0 | 0.00 | 0.00 | 0.00 | 47 | 1019.4 |
| 20260901191606 | 84 | 108 | 2.0 | 10.0 | 0.00 | 0.00 | 0.00 | 50 | 1019.6 |
| 20260901184603 | 82 | 0 | 1.0 | 6.0 | 0.00 | 0.00 | 0.00 | 53 | 1020.2 |
| 20260901183106 | 82 | 57 | 3.0 | 7.0 | 0.00 | 0.00 | 0.00 | 52 | 1020.4 |
| 20260901181603 | 81 | 31 | 2.0 | 6.0 | 0.00 | 0.00 | 0.00 | 52 | 1020.5 |
| 20260901180105 | 80 | 198 | 2.0 | 7.0 | 0.00 | 0.00 | 0.00 | 56 | 1020.7 |
| 20260901174603 | 79 | 64 | 1.0 | 8.0 | 0.00 | 0.00 | 0.00 | 58 | 1020.7 |
| 20260901173104 | 78 | 102 | 2.0 | 6.0 | 0.00 | 0.00 | 0.00 | 62 | 1020.8 |
| 20260901171605 | 78 | 83 | 1.0 | 5.0 | 0.00 | 0.00 | 0.00 | 59 | 1021.0 |
| 20260901170120 | 77 | 34 | 2.0 | 5.0 | 0.00 | 0.00 | 0.00 | 62 | 1020.9 |
| 20260901164608 | 76 | 76 | 2.0 | 4.0 | 0.00 | 0.00 | 0.00 | 62 | 1020.9 |
| 20260901163105 | 75 | 65 | 0.0 | 4.0 | 0.00 | 0.00 | 0.00 | 66 | 1020.8 |
| 20260901161610 | 74 | 23 | 1.0 | 3.0 | 0.00 | 0.00 | 0.00 | 66 | 1020.9 |
| 20260901160103 | 74 | 344 | 2.0 | 5.0 | 0.00 | 0.00 | 0.00 | 67 | 1020.7 |
| 20260901154615 | 73 | 0 | 1.0 | 4.0 | 0.00 | 0.00 | 0.00 | 71 | 1020.7 |
| 20260901153118 | 72 | 0 | 0.0 | 3.0 | 0.00 | 0.00 | 0.00 | 71 | 1020.6 |
| 20260901151605 | 72 | 0 | 0.0 | 3.0 | 0.00 | 0.00 | 0.00 | 72 | 1020.8 |
| 20260901150110 | 71 | 0 | 1.0 | 3.0 | 0.00 | 0.00 | 0.00 | 72 | 1020.8 |
| 20260901144604 | 71 | 80 | 1.0 | 3.0 | 0.00 | 0.00 | 0.00 | 74 | 1020.7 |
| 20260901143100 | 70 | 15 | 0.0 | 3.0 | 0.00 | 0.00 | 0.00 | 74 | 1020.7 |
| 20260901141604 | 69 | 0 | 0.0 | 1.0 | 0.00 | 0.00 | 0.00 | 75 | 1020.6 |
| 20260901140109 | 67 | 0 | 0.0 | 0.0 | 0.00 | 0.00 | 0.00 | 81 | 1020.7 |
| 20260901134601 | 64 | 0 | 0.0 | 1.0 | 0.00 | 0.00 | 0.00 | 87 | 1020.6 |
| 20260901133113 | 63 | 0 | 0.0 | 2.0 | 0.00 | 0.00 | 0.00 | 88 | 1020.4 |
| 20260901131603 | 62 | 239 | 0.0 | 2.0 | 0.00 | 0.00 | 0.00 | 88 | 1020.2 |
| 20260901130124 | 62 | 0 | 0.0 | 2.0 | 0.00 | 0.00 | 0.00 | 88 | 1020.2 |
| 20260901124629 | 61 | 221 | 1.0 | 2.0 | 0.00 | 0.00 | 0.00 | 88 | 1020.1 |
| 20260901123121 | 61 | 0 | 0.0 | 1.0 | 0.00 | 0.00 | 0.00 | 87 | 1019.9 |
| 20260901121608 | 62 | 271 | 1.0 | 3.0 | 0.00 | 0.00 | 0.00 | 86 | 1019.8 |
| 20260901120121 | 62 | 265 | 0.0 | 2.0 | 0.00 | 0.00 | 0.00 | 88 | 1019.8 |
| 20260901114603 | 62 | 0 | 0.0 | 2.0 | 0.00 | 0.00 | 0.00 | 88 | 1019.8 |
| 20260901113110 | 62 | 0 | 0.0 | 1.0 | 0.00 | 0.00 | 0.00 | 87 | 1019.8 |
| 20260901111559 | 62 | 257 | 0.0 | 1.0 | 0.00 | 0.00 | 0.00 | 87 | 1019.8 |
| 20260901110108 | 62 | 0 | 1.0 | 3.0 | 0.00 | 0.00 | 0.00 | 87 | 1019.7 |
| 20260901104603 | 61 | 0 | 0.0 | 0.0 | 0.00 | 0.00 | 0.00 | 87 | 1019.6 |
| 20260901103102 | 62 | 0 | 0.0 | 0.0 | 0.00 | 0.00 | 0.00 | 86 | 1019.7 |
| 20260901101605 | 62 | 0 | 0.0 | 0.0 | 0.00 | 0.00 | 0.00 | 86 | 1019.7 |
| 20260901100106 | 63 | 0 | 0.0 | 1.0 | 0.00 | 0.00 | 0.00 | 84 | 1019.7 |
| 20260901094603 | 63 | 0 | 0.0 | 2.0 | 0.00 | 0.00 | 0.00 | 84 | 1019.7 |
| 20260901093100 | 63 | 0 | 0.0 | 2.0 | 0.00 | 0.00 | 0.00 | 83 | 1019.8 |
| 20260901091605 | 64 | 0 | 0.0 | 2.0 | 0.00 | 0.00 | 0.00 | 82 | 1019.7 |
| 20260901084604 | 64 | 0 | 0.0 | 1.0 | 0.00 | 0.10 | 0.00 | 81 | 1019.7 |